Timmins Victor M. Power Airport

Airport
ICAO code: 
CYTS
Summary
ICAO Region: 
NAM
Territory: 
Location: 
Timmins, Ontario,
Coordinates: 
Aerial View: 
48° 34' 10.999" N, 81° 22' 36.001" W
Airport BS: 
Bird Strike
Airport CFIT: 
Altimeter Temperature Error Correction
Airport GND: 
Aircraft Ground De/Anti Icing
Airport RE: 
Landing on Contaminated Runways
Metar
Observation
CYTS 240600Z 20002KT 15SM FEW140 M29/M32 A2966 RMK AC2 SLP083
Station
Timmins, Ont.
Date/Time
2022-01-24 06:00:00
Wind direction
200°
Wind speed
02 kts
Lowest cloud amount
few clouds
Temperature
-29°C
Dew point
-32°C
Humidity
75%
Weather condition
n/a

Description

Regional airport located 6 miles northwest of Timmins, Ontario, Canada.

Climatology

Humid Continental climate (Köppen climate classification Dfb) - Variable weather patterns and a large seasonal temperature variance. Summers are often warm and humid with frequent thunderstorms and winters can be very cold with frequent snowfall and persistent snow cover.

Runways

Designator Length Width Surface Rops
10/28 1494 46 ASP Yes/Yes
3/21 1829 46 ASP Yes/Yes
Airport map: 
Aerial View: 

SKYbrary Partners:

Safety knowledge contributed by: